ASTRA 2A 1 25462U 98050A 21061.97437097 .00000141 00000-0 00000+0 0 9992 2 25462 2.2435 90.5080 0002286 258.4618 190.7859 1.00276398 82365 SL-12 R/B(2) 1 25465U 98050D 21061.32316044 -.00000114 00000-0 00000+0 0 9993 2 25465 14.3343 277.2109 4991026 67.5345 332.0755 1.82826742150338